Content
SEND FEEDBACK

Daily
Averages
Monthly
Summary
United States of America

ROCA, NEBRASKA


Home > North America > United States > Nebraska
Elevation: 1190 feet     Latitude: 40 39N     Longitude: 096 40W

WEATHER
 
SELECT A DAY
Number of Records: 205,988;   Date Range: 1/1/95 - 10/22/14
 
SHARE

PRINT THIS DATA

[ ← Previous Day ]
WEATHER ALMANAC - FEBRUARY 13, 2013
[ Next Day → ]
[ °C ]   °F
Weather ElementAverageHighLow
Temperature39.4 °F54 °F (2:54 pm)23 °F (6:54 am)
Dewpoint24.3 °F28 °F (10:54 pm)19 °F (6:54 am)
Humidity58.6 %85 % (6:54 am)30 % (2:54 pm)
Barometer29.86 in29.95 in (1:54 am)29.78 in (3:54 pm)
Wind Speed6.5 mph16.1 mph (2:54 pm)
Weather ElementAverage
Visibility10 mi
Wind DirectionSSW (192.6 °)

Weather ElementTotal
Precipitation---
Heating Degree Days26.5 (Base 65)
Averaged from 23 records on February 13, 2013
WEATHER CONDITIONS BREAKOUT
WIND DIRECTION BREAKOUT
WEATHER BY HOUR - FEBRUARY 13, 2013
[ °C ]   °F
Local TimeTemperatureDewpointHumidityBarometerVisibilityWind DirectionWind SpeedGust SpeedPrecipitationEventsConditions
1:54 AM28.9 °F21.0 °F72 %29.95 in10.0 miWSW (240°)3.5 mphClear
2:54 AM28.0 °F21.0 °F75 %29.94 in10.0 miWSW (250°)3.5 mphClear
3:54 AM26.1 °F19.9 °F78 %29.93 in10.0 miCalmClear
4:54 AM24.1 °F19.9 °F84 %29.91 in10.0 miCalmClear
5:54 AM24.1 °F19.9 °F84 %29.91 in10.0 miCalmClear
6:54 AM23.0 °F19.0 °F85 %29.92 in10.0 miCalmClear
7:54 AM26.1 °F21.9 °F84 %29.91 in10.0 miCalmClear
8:54 AM30.9 °F26.1 °F82 %29.92 in10.0 miWSW (240°)4.6 mphClear
9:54 AM35.1 °F27.0 °F72 %29.91 in10.0 miCalmClear
10:54 AM42.1 °F27.0 °F55 %29.89 in10.0 miSW (230°)3.5 mphClear
11:54 AM48.0 °F27.0 °F44 %29.88 in10.0 miWSW (250°)10.4 mphClear
12:54 PM50.0 °F25.0 °F38 %29.84 in10.0 miWSW (240°)11.5 mphClear
1:54 PM53.1 °F26.1 °F35 %29.81 in10.0 miWest (260°)15.0 mphClear
2:54 PM54.0 °F23.0 °F30 %29.79 in10.0 miWest (260°)16.1 mphClear
3:54 PM54.0 °F23.0 °F30 %29.78 in10.0 miWSW (240°)16.1 mphClear
4:54 PM52.0 °F24.1 °F34 %29.78 in10.0 miWest (260°)10.4 mphPartly Cloudy
5:54 PM50.0 °F25.0 °F38 %29.78 in10.0 miWest (260°)8.1 mphClear
6:54 PM48.0 °F26.1 °F42 %29.80 in10.0 miWest (280°)9.2 mphMostly Cloudy
7:54 PM43.0 °F27.0 °F53 %29.81 in10.0 miWest (260°)8.1 mphClear
8:54 PM42.1 °F27.0 °F55 %29.81 in10.0 miWest (270°)9.2 mphClear
9:54 PM39.9 °F27.0 °F60 %29.81 in10.0 miWNW (300°)3.5 mphClear
10:54 PM41.0 °F28.0 °F60 %29.82 in10.0 miWest (280°)5.8 mphOvercast
11:54 PM42.1 °F28.0 °F58 %29.84 in10.0 miNW (310°)11.5 mphMostly Cloudy
Hourly data recorded from KLNK, located miles away from Roca, Nebraska







STORIES FROM OUR PARTNERS